TimeCST,TemperatureF,Dew PointF,Humidity,Sea Level PressureIn,VisibilityMPH,Wind Direction,Wind SpeedMPH,Gust SpeedMPH,PrecipitationIn,Events,Conditions,WindDirDegrees,DateUTC
12:53 AM,45.0,21.0,39,29.99,10.0,SSW,16.1,-,N/A,,Clear,200,2012-11-25 06:53:00
1:53 AM,44.1,21.9,42,29.97,10.0,SSW,15.0,-,N/A,,Clear,200,2012-11-25 07:53:00
2:53 AM,43.0,21.9,43,29.97,10.0,South,12.7,-,N/A,,Clear,190,2012-11-25 08:53:00
3:53 AM,42.1,23.0,47,29.96,10.0,South,11.5,-,N/A,,Clear,190,2012-11-25 09:53:00
4:53 AM,41.0,23.0,49,29.96,10.0,South,9.2,-,N/A,,Clear,190,2012-11-25 10:53:00
5:53 AM,41.0,23.0,49,29.95,10.0,South,11.5,-,N/A,,Clear,190,2012-11-25 11:53:00
6:53 AM,42.1,23.0,47,29.95,10.0,South,9.2,-,N/A,,Clear,190,2012-11-25 12:53:00
7:53 AM,44.1,24.1,45,29.96,10.0,SSW,11.5,-,N/A,,Clear,200,2012-11-25 13:53:00
8:53 AM,48.0,25.0,41,29.98,10.0,SSW,9.2,-,N/A,,Clear,210,2012-11-25 14:53:00
9:53 AM,51.1,26.1,38,29.98,10.0,SW,13.8,-,N/A,,Clear,220,2012-11-25 15:53:00
10:53 AM,55.0,28.9,37,29.97,10.0,SW,8.1,-,N/A,,Clear,230,2012-11-25 16:53:00
11:53 AM,57.0,30.0,36,29.93,10.0,WSW,9.2,-,N/A,,Clear,240,2012-11-25 17:53:00
12:53 PM,59.0,30.9,35,29.90,10.0,Variable,6.9,-,N/A,,Clear,0,2012-11-25 18:53:00
1:53 PM,60.1,30.9,33,29.88,10.0,Calm,Calm,-,N/A,,Clear,0,2012-11-25 19:53:00
2:53 PM,62.1,32.0,32,29.87,10.0,Calm,Calm,-,N/A,,Clear,0,2012-11-25 20:53:00
3:53 PM,59.0,35.1,41,29.88,10.0,North,5.8,-,N/A,,Clear,350,2012-11-25 21:53:00
4:53 PM,52.0,34.0,50,29.89,10.0,North,6.9,-,N/A,,Clear,360,2012-11-25 22:53:00
5:53 PM,51.1,33.1,50,29.91,10.0,NNE,5.8,-,N/A,,Clear,20,2012-11-25 23:53:00
6:53 PM,50.0,32.0,50,29.94,10.0,NE,3.5,-,N/A,,Clear,40,2012-11-26 00:53:00
7:53 PM,45.0,32.0,60,29.95,10.0,ENE,3.5,-,N/A,,Clear,60,2012-11-26 01:53:00
8:53 PM,45.0,32.0,60,29.95,10.0,NE,4.6,-,N/A,,Clear,50,2012-11-26 02:53:00
9:53 PM,44.1,30.9,60,29.96,10.0,ENE,4.6,-,N/A,,Clear,70,2012-11-26 03:53:00
10:53 PM,43.0,30.9,62,29.96,10.0,ENE,4.6,-,N/A,,Clear,60,2012-11-26 04:53:00
11:53 PM,39.9,30.9,70,29.97,10.0,NE,5.8,-,N/A,,Clear,50,2012-11-26 05:53:00